Location: Arcizac
(43.0933°N, 0.0112°E)
Time: 03:22:07
(UTC+00:00)

Envisat - Pass Details

Date: 14 December 2019
Orbit: 764 x 766 km, 98.1° (Epoch: 17 January)

Event Time Altitude Azimuth Distance (km) Brightness Sun altitude
Rises 16:48:03 0° 131° (SE) 3,223 6.0 -4.4°
Reaches altitude 10° 16:50:42 10° 118° (ESE) 2,301 5.2 -4.9°
Maximum altitude 16:54:44 25° 65° (ENE) 1,533 4.0 -5.5°
Drops below altitude 10° 16:58:47 10° 12° (NNE) 2,313 5.1 -6.2°
Sets 17:01:27 0° 359° (N) 3,244 6.0 -6.6°
